F5POE Weather Reports


time (UTC)temp
F
wind
direction
speed
knots
gust
knots
rain 1hr
in
rain 24hr
in
rain mn
in
humidity
%
barometer
mb
20260506124017 58 315 1.7 5.2 0.01 0.90 0.42 71 1011.0
20260506123017 57 158 1.7 5.2 0.02 0.91 0.42 73 1011.0
20260506122017 57 315 1.7 4.3 0.01 0.90 0.41 70 1011.1
20260506121018 57 23 1.7 6.1 0.01 0.90 0.41 74 1011.0
20260506120017 56 338 0.9 3.5 0.01 0.91 0.41 74 1011.1
20260506115027 56 315 0.9 3.5 0.02 0.91 0.41 77 1011.1
20260506114017 56 45 1.7 7.0 0.02 0.91 0.41 78 1011.2
20260506113018 56 23 0.9 3.5 0.01 0.90 0.40 79 1011.1
20260506112017 56 338 1.7 2.6 0.02 0.90 0.40 80 1011.1
20260506111018 55 90 0.9 2.6 0.02 0.90 0.40 81 1011.2
20260506110017 55 338 1.7 5.2 0.03 0.90 0.40 80 1011.1
20260506105017 55 248 1.7 5.2 0.02 0.89 0.39 83 1011.0
20260506104017 54 0 0.9 2.6 0.02 0.89 0.39 85 1011.1
20260506103017 54 315 0.9 3.5 0.03 0.89 0.39 84 1011.2
20260506102017 54 90 1.7 4.3 0.02 0.88 0.39 84 1011.0
20260506101027 54 315 0.9 4.3 0.02 0.88 0.39 85 1010.9
20260506100017 54 315 1.7 3.5 0.02 0.87 0.38 86 1010.8
20260506095017 53 113 0.9 3.5 0.02 0.87 0.38 87 1010.8
20260506094018 52 338 0.9 2.6 0.03 0.87 0.38 88 1010.9
20260506093027 52 338 1.7 5.2 0.02 0.86 0.37 88 1010.7
20260506092017 51 338 1.7 6.1 0.03 0.86 0.37 89 1010.7
20260506091017 51 293 0.9 3.5 0.03 0.86 0.37 89 1010.7
20260506090027 50 315 0.9 5.2 0.03 0.85 0.36 89 1010.6
20260506085017 50 315 0.9 3.5 0.03 0.85 0.36 89 1010.6
20260506084017 50 338 0.9 3.5 0.03 0.84 0.35 89 1010.5
20260506083018 49 315 0.9 1.7 0.03 0.84 0.35 89 1010.5
20260506082017 49 315 0.9 2.6 0.03 0.83 0.35 89 1010.4
20260506081017 49 338 0.9 2.6 0.03 0.83 0.35 90 1010.2
20260506073027 49 315 0.9 3.5 0.04 0.81 0.33 90 1009.9
20260506072019 49 338 0.9 6.1 0.03 0.80 0.32 90 1009.8
20260506071017 49 0 0.9 7.0 0.04 0.80 0.32 90 1009.6
20260506062017 48 315 0.9 3.5 0.04 0.77 0.30 90 1009.4
20260506061017 48 0 0.9 4.3 0.04 0.76 0.29 90 1009.2
20260506051026 48 315 0.9 2.6 0.04 0.72 0.26 90 1008.6
20260506045019 49 0.0 1.7 0.05 0.71 0.25 90 1008.4
20260506044019 49 293 0.9 3.5 0.05 0.70 0.24 90 1008.4
20260506043023 49 315 0.9 3.5 0.04 0.69 0.24 90 1008.4
20260506042017 49 0.0 2.6 0.04 0.68 0.23 90 1008.4
20260506041018 49 0.0 2.6 0.05 0.68 0.23 90 1008.4
20260506040017 49 23 0.9 4.3 0.05 0.67 0.22 90 1008.3
20260506035027 49 248 0.9 1.7 0.05 0.66 0.21 90 1008.4
20260506034017 49 0.0 1.7 0.04 0.66 0.20 90 1008.4
20260506033028 49 0.0 2.6 0.05 0.66 0.20 90 1008.3
20260506032017 49 0.0 1.7 0.05 0.65 0.20 90 1008.4
20260506031017 49 0.0 1.7 0.05 0.64 0.19 90 1008.4
20260506030017 49 315 0.9 3.5 0.05 0.63 0.18 90 1008.3
20260506025027 50 338 0.9 2.6 0.04 0.62 0.17 90 1008.4
20260506024017 50 270 0.9 2.6 0.05 0.62 0.17 90 1008.6
20260506023018 50 0.0 2.6 0.05 0.61 0.17 90 1008.7
20260506022017 50 338 0.9 1.7 0.05 0.60 0.16 90 1008.6
20260506021017 50 0.0 0.9 0.04 0.59 0.15 90 1008.6
20260506020017 50 0.0 2.6 0.04 0.58 0.14 90 1008.5
20260506015017 50 338 0.9 1.7 0.05 0.58 0.14 90 1008.5
20260506014017 50 0.0 2.6 0.05 0.57 0.13 90 1008.4
20260506013017 51 0.0 1.7 0.05 0.56 0.13 90 1008.5
20260506012017 51 0.0 0.9 0.04 0.55 0.12 90 1008.5
20260506011017 51 0 0.9 1.7 0.05 0.55 0.12 90 1008.5
20260506010119 51 0.0 0.9 0.05 0.54 0.14 90 1008.5
20260506005527 51 0.0 0.9 0.04 0.53 0.10 90 1008.5
20260506004527 51 0.0 2.6 0.05 0.53 0.10 90 1008.5
20260506003517 51 0.0 2.6 0.05 0.52 0.09 90 1008.4
20260506002527 51 315 0.9 3.5 0.05 0.51 0.09 90 1008.5
20260506001517 51 0.0 0.9 0.04 0.50 0.08 90 1008.6
20260506000517 51 0.0 1.7 0.04 0.49 0.07 90 1008.6
20260505235517 51 0.0 3.5 0.05 0.49 0.07 90 1008.6
20260505234517 51 0.0 0.9 0.05 0.48 0.06 90 1008.6
20260505233517 51 0.0 0.9 0.04 0.47 0.06 90 1008.6
20260505232538 51 293 0.9 2.6 0.04 0.46 0.05 90 1008.7
20260505231517 51 338 0.9 2.6 0.05 0.46 0.05 90 1008.8
20260505230518 51 315 0.9 3.5 0.04 0.45 0.04 90 1008.7
20260505225519 51 338 0.9 4.3 0.04 0.44 0.03 89 1008.7
20260505224518 52 338 0.9 2.6 0.04 0.43 0.02 90 1008.7
20260505223518 52 315 0.9 4.3 0.04 0.43 0.02 89 1008.6
20260505222518 52 0.0 1.7 0.04 0.42 0.02 90 1008.6
20260505221527 52 0.0 0.9 0.04 0.41 0.01 90 1008.6
20260505220539 52 0.0 0.0 0.04 0.41 0.01 90 1008.7
20260505220017 52 0.0 0.9 0.04 0.40 0.32 90 1008.7
20260505215018 52 0.0 0.0 0.04 0.40 0.32 90 1008.8
20260505214017 52 0.0 0.9 0.04 0.39 0.31 89 1008.8
20260505213018 53 0.0 0.0 0.04 0.38 0.31 89 1008.9
20260505212017 53 0.0 0.0 0.04 0.38 0.31 89 1008.9
20260505211018 53 0.0 0.9 0.04 0.37 0.30 90 1008.9
20260505210018 53 0.0 0.9 0.03 0.36 0.29 90 1008.9
20260505205018 53 0.0 0.9 0.04 0.36 0.29 90 1009.0
20260505204018 53 0.0 0.0 0.03 0.35 0.28 90 1008.8
20260505203027 53 0.0 0.9 0.03 0.34 0.28 90 1008.8
20260505202017 53 0.0 0.0 0.04 0.34 0.28 89 1008.7
20260505201027 53 0.0 0.0 0.03 0.33 0.27 89 1008.6
20260505200017 53 0.0 0.9 0.04 0.33 0.27 89 1008.5
20260505195017 53 0.0 0.9 0.03 0.32 0.26 89 1008.4
20260505194018 53 0.0 0.9 0.04 0.32 0.26 89 1008.3
20260505193018 53 0.0 0.9 0.03 0.31 0.25 89 1008.1
20260505192017 53 0.0 0.9 0.03 0.31 0.24 89 1008.0
20260505191017 53 0.0 0.9 0.03 0.31 0.24 89 1008.1
20260505190126 53 0.0 1.7 0.03 0.30 0.30 89 1008.0
20260505185018 53 0.0 0.9 0.04 0.30 0.24 89 1007.9
20260505184017 53 0.0 2.6 0.03 0.29 0.23 89 1007.8
20260505183018 53 270 0.9 2.6 0.04 0.29 0.23 89 1007.7
20260505182017 54 0.0 1.7 0.04 0.28 0.22 89 1007.7
20260505181017 54 0.0 0.9 0.04 0.28 0.22 89 1007.7
20260505180017 54 0.0 0.9 0.04 0.27 0.21 89 1007.6
20260505175017 54 0.0 1.7 0.04 0.26 0.20 89 1007.8
20260505174019 54 0.0 3.5 0.05 0.26 0.20 89 1007.8
20260505173017 54 0.0 1.7 0.05 0.25 0.20 89 1007.7
20260505172017 54 0.0 0.9 0.05 0.24 0.19 89 1007.7
20260505171018 54 0 0.9 3.5 0.05 0.24 0.19 89 1007.7
20260505170017 54 0.0 2.6 0.05 0.23 0.18 89 1007.8
20260505165017 54 0.0 1.7 0.05 0.22 0.17 89 1007.8
20260505164017 54 338 0.9 2.6 0.05 0.21 0.17 89 1007.8
20260505163018 54 0.0 1.7 0.05 0.20 0.16 89 1007.7
20260505162018 54 0.0 2.6 0.06 0.20 0.15 89 1007.7
20260505161017 54 338 0.9 2.6 0.07 0.20 0.15 89 1007.8
20260505153017 55 315 0.9 6.1 0.06 0.17 0.12 89 1007.7
20260505152017 54 338 1.7 5.2 0.05 0.16 0.10 89 1007.7
20260505151017 55 338 1.7 4.3 0.05 0.15 0.09 89 1007.8
20260505125017 56 0 0.9 4.3 0.02 0.07 0.02 88 1007.9